Probability
0 0 0 0 0 0 0 0 0 0 0 0 0 0 0 0 0 0 0 0 0 0 0 0 0 0 0 0 0 0 0 0 0 0 0 0 0 0 0 0 0 0 0
0 0 0 0 0 0 0 0 0 0 0 0 0 0 0 0 0 0 0 0 0 0 0 0 0 0 0 0 0 0 0 0 0 0 0 0 0 0 0 0 0 0 0
1 0 0 0 0 0 0 0 0 0 0 0 0 0 0 0 0 0 0 0 0 0 0 0 0 0 0 0 0 0 0 0 0 0 0 0 0 0 0 0 0 0 0
2 1 1 0 0 0 0 0 0 0 0 0 0 0 0 0 0 0 0 0 0 0 0 0 0 0 0 0 0 0 0 0 0 0 0 0 0 0 0 0 0 0 0
3 3 2 1 0 0 0 0 0 0 0 0 0 0 0 0 0 0 0 0 0 0 0 0 0 0 0 0 0 0 0 0 0 0 0 0 0 0 0 0 0 0 0
4 3 2 1 0 0 0 0 0 0 0 0 0 0 0 0 0 0 0 0 0 0 0 0 0 0 0 0 0 0 0 0 0 0 0 0 0 0 0 0 0 0 0
3 2 1 0 0 0 0 0 0 0 0 0 0 0 0 0 0 0 0 0 0 0 0 0 0 0 0 0 0 0 0 0 0 0 0 0 0 0 0 0 0 0 0
1 0 0 0 0 0 0 0 0 0 0 0 0 0 0 0 0 0 0 0 0 0 0 0 0 0 0 0 0 0 0 0 0 0 0 0 0 0 0 0 0 0 0
0 0 0 0 0 0 0 0 0 0 0 0 0 0 0 0 0 0 0 0 0 0 0 0 0 0 0 0 0 0 0 0 0 0 0 0 0 0 0 0 0 0 0
0 0 0 0 0 0 0 0 0 0 0 0 0 0 0 0 0 0 0 0 0 0 0 0 0 0 0 0 0 0 0 0 0 0 0 0 0 0 0 0 0 0 0
0 0 0 0 0 0 0 0 0 0 0 0 0 0 0 0 0 0 0 0 0 0 0 0 0 0 0 0 0 0 0 0 0 0 0 0 0 0 0 0 0 0 0
0 0 0 0 0 0 0 0 0 0 0 0 0 0 0 0 0 0 0 0 0 0 0 0 0 0 0 0 0 0 0 0 0 0 0 0 0 0 0 0 0 0 0
0 0 0 0 0 0 0 0 0 0 0 0 0 0 0 0 0 0 0 0 0 0 0 0 0 0 0 0 0 0 0 0 0 0 0 0 0 0 0 0 0 0 0
0 0 0 0 0 0 0 0 0 0 0 0 0 0 0 0 0 0 0 0 0 0 0 0 0 0 0 0 0 0 0 0 0 0 0 0 0 0 0 0 0 0 0
0 0 0 0 0 0 0 0 0 0 0 0 0 0 0 0 0 0 0 0 0 0 0 0 0 0 0 0 0 0 0 0 0 0 0 0 0 0 0 0 0 0 0
0 0 0 0 0 0 0 0 0 0 0 0 0 0 0 0 0 0 0 0 0 0 0 0 0 0 0 0 0 0 0 0 0 0 0 0 0 0 0 0 0 0 0
0 0 0 0 0 0 0 0 0 0 0 0 0 0 0 0 0 0 0 0 0 0 0 0 0 0 0 0 0 0 0 0 0 0 0 0 0 0 0 0 0 0 0
0 0 0 0 0 0 0 0 0 0 0 0 0 0 0 0 0 0 0 0 0 0 0 0 0 0 0 0 0 0 0 0 0 0 0 0 0 0 0 0 0 0 0
0 0 0 0 0 0 0 0 0 0 0 0 0 0 0 0 0 0 0 0 0 0 0 0 0 0 0 0 0 0 0 0 0 0 0 0 0 0 0 0 0 0 0
0 0 0 0 0 0 0 0 0 0 0 0 0 0 0 0 0 0 0 0 0 0 0 0 0 0 0 0 0 0 0 0 0 0 0 0 0 0 0 0 0 0 0
0 0 0 0 0 0 0 0 0 0 0 0 0 0 0 0 0 0 0 0 0 0 0 0 0 0 0 0 0 0 0 0 0 0 0 0 0 0 0 0 0 0 0
0 0 0 0 0 0 0 0 0 0 0 0 0 0 0 0 0 0 0 0 0 0 0 0 0 0 0 0 0 0 0 0 0 0 0 0 0 0 0 0 0 0 0
0 0 0 0 0 0 0 0 0 0 0 0 0 0 0 0 0 0 0 0 0 0 0 0 0 0 0 0 0 0 0 0 0 0 0 0 0 0 0 0 0 0 0
0 0 0 0 0 0 0 0 0 0 0 0 0 0 0 0 0 0 0 0 0 0 0 0 0 0 0 0 0 0 0 0 0 0 0 0 0 0 0 0 0 0 0
0 0 0 0 0 0 0 0 0 0 0 0 0 0 0 0 0 0 0 0 0 0 0 0 0 0 0 0 0 0 0 0 0 0 0 0 0 0 0 0 0 0 0
0 0 0 0 0 0 0 0 0 0 0 0 0 0 0 0 0 0 0 0 0 0 0 0 0 0 0 0 0 0 0 0 0 0 0 0 0 0 0 0 0 0 0
Wind_Speed
10 9 8 8 8 7 7 7 6 5 6 6 6 6 6 6 5 5 6 5 6 5 5 5 6 5 4 4 4 4 4 4 5 4 3 3 4 5 5 4 4 4 5
10 9 9 8 8 8 8 8 7 7 6 7 6 6 7 7 6 6 7 6 7 7 7 6 7 5 6 5 4 5 5 6 5 6 4 3 4 4 5 5 4 4 4
9 10 9 9 9 10 10 8 8 8 7 7 7 8 8 7 7 7 7 7 7 8 7 7 7 6 7 5 6 6 5 5 5 5 5 3 4 3 4 4 4 4 4
9 10 10 11 11 10 9 9 9 8 8 8 9 9 8 8 8 8 8 8 8 8 8 8 8 8 9 8 6 7 6 6 5 5 6 5 4 4 3 4 4 3 4
9 10 11 10 8 8 8 8 8 8 10 9 8 8 8 7 8 9 8 9 9 9 8 9 9 11 12 9 7 7 7 6 5 6 6 4 4 4 4 3 4 4 4
8 10 8 7 7 8 9 8 8 9 8 8 9 9 9 8 11 14 11 9 9 9 9 9 9 11 12 13 14 13 11 9 8 7 6 7 8 6 5 4 4 3 4
7 6 5 6 7 8 7 7 8 9 8 9 10 10 11 12 14 14 15 10 10 10 10 9 8 8 10 9 10 12 13 14 14 10 10 10 9 7 6 6 6 6 6
2 2 2 3 5 4 5 7 8 6 7 8 9 9 10 11 14 15 15 12 10 11 11 11 11 10 10 10 9 9 10 10 11 11 11 11 11 9 8 7 6 5 6
0 1 2 3 4 4 6 7 6 5 7 7 6 8 10 12 14 15 14 8 9 12 12 12 12 12 13 13 11 11 11 10 11 14 14 13 13 12 8 5 5 5 6
3 2 2 1 2 4 5 5 4 5 6 6 7 7 9 10 12 14 14 8 10 10 10 11 14 15 15 14 12 11 13 12 9 8 9 11 11 11 12 10 8 7 6
3 4 4 3 2 2 3 2 3 3 4 5 7 7 7 10 11 13 14 9 10 10 10 9 10 16 18 17 15 13 15 11 8 8 7 7 7 7 8 9 9 9 9
5 5 5 4 4 3 2 2 2 3 4 5 6 7 6 7 9 11 14 15 14 12 11 10 10 15 17 17 14 15 16 12 7 7 7 7 7 8 8 8 10 11 11
6 6 5 5 4 4 3 3 3 3 3 4 5 6 7 5 6 12 15 15 17 13 11 14 14 15 14 12 16 16 13 9 8 8 9 10 9 8 7 6 7 9 11
6 5 5 5 5 4 3 3 3 4 4 5 5 7 7 6 6 6 7 8 11 12 12 13 15 14 12 11 10 10 10 9 10 10 10 9 7 7 7 7 6 6 6
4 4 4 4 4 4 4 3 4 4 5 6 6 7 8 9 10 12 10 8 8 9 7 7 7 7 8 9 9 9 8 8 10 10 9 9 8 8 8 7 6 6 7
3 4 3 4 4 4 4 6 6 7 11 12 12 12 10 13 17 18 18 17 17 14 8 8 10 10 10 10 10 9 9 10 10 10 9 9 9 9 8 7 7 7 9
3 4 3 4 4 5 5 6 8 9 9 11 13 14 14 16 18 18 18 17 15 11 9 10 10 10 10 10 9 9 9 9 9 9 9 9 9 9 8 8 8 8 9
4 5 5 4 5 5 6 6 6 8 10 9 10 13 16 16 16 17 16 11 8 7 9 10 10 9 9 9 9 9 8 8 8 8 9 9 9 9 9 9 8 10 9
4 4 4 5 5 5 6 6 7 8 9 10 10 11 14 15 15 14 11 7 8 8 8 9 9 8 8 8 8 8 8 8 8 8 8 9 9 9 9 9 9 10 10
4 9 8 5 6 6 6 7 7 8 9 9 10 10 11 11 11 10 7 7 8 8 8 8 8 8 8 8 8 7 7 8 9 8 8 8 8 9 10 11 9 9 9
4 6 10 7 6 6 7 8 8 8 9 10 10 11 14 11 11 11 9 8 8 8 8 7 7 7 7 7 7 8 9 8 8 8 7 8 8 8 8 8 9 9 9
4 5 5 6 6 7 8 8 8 9 10 11 10 11 13 10 9 9 8 8 7 6 6 5 5 5 5 5 6 6 7 7 7 7 7 7 7 8 8 8 8 8 8
4 6 6 6 7 8 8 8 8 9 10 10 10 10 10 9 9 9 8 8 7 6 5 4 5 4 4 4 5 5 6 6 6 6 6 6 7 7 7 8 10 9 9
5 6 7 7 7 8 8 9 9 10 10 10 10 9 9 9 10 10 9 8 8 7 6 5 5 6 7 5 4 4 4 4 4 5 8 7 7 7 7 8 9 10 10
5 6 6 7 7 8 9 9 10 10 10 10 10 9 9 10 9 9 9 8 9 8 8 7 5 6 7 7 6 4 3 4 4 5 5 6 8 8 8 9 8 9 9
6 7 7 7 7 8 9 9 10 11 10 10 10 9 9 9 9 9 8 8 8 8 8 7 8 8 8 6 6 6 5 4 4 5 5 5 7 7 8 7 10 9 10
Wind_Direction
202 201 199 198 196 193 199 208 205 205 203 207 209 210 214 220 216 212 226 225 227 237 231 225 234 226 221 217 210 209 211 207 238 261 253 268 277 286 303 306 300 298 296
202 197 201 197 191 197 208 211 204 206 208 210 209 211 218 222 218 217 230 230 227 236 237 231 240 232 227 223 214 217 219 214 227 257 261 260 259 272 281 291 296 299 293
192 194 198 198 198 206 211 209 205 207 211 212 209 215 221 223 222 223 227 233 232 236 237 234 239 230 234 229 222 226 229 227 220 240 260 255 263 269 280 282 286 290 295
190 195 203 206 207 210 210 207 208 208 211 214 215 219 222 224 227 230 229 234 238 240 238 235 237 231 234 233 228 228 229 233 230 239 255 258 259 260 256 266 280 279 293
189 201 212 211 207 207 209 211 211 212 218 217 218 223 224 224 228 227 229 234 237 243 242 239 238 238 237 231 227 226 222 228 234 241 251 253 253 248 247 243 262 280 279
193 209 213 203 203 211 215 213 214 218 219 216 220 224 226 229 229 224 221 230 232 237 243 243 243 247 247 242 237 231 219 224 234 238 247 249 255 249 245 239 246 258 274
199 212 207 202 210 216 215 214 220 222 220 222 226 225 230 234 231 231 228 225 230 233 236 240 244 241 234 240 245 247 241 234 228 232 245 248 251 242 232 238 232 234 245
207 237 237 227 235 233 222 227 230 226 225 230 232 231 235 242 234 233 232 230 234 236 235 233 236 242 235 230 239 245 246 244 238 236 240 245 246 244 231 237 244 246 253
2 262 239 217 225 227 234 241 236 229 235 236 237 232 235 246 238 233 230 232 237 241 238 234 232 239 237 225 231 243 251 253 246 239 237 242 242 237 223 220 222 229 253
359 334 318 258 234 235 239 242 237 232 243 248 250 245 243 250 247 238 227 230 239 244 243 237 232 232 234 220 223 231 243 249 246 247 242 244 245 244 224 219 224 230 245
15 25 21 2 305 274 269 261 258 251 256 257 260 259 252 253 257 248 235 228 237 243 243 241 237 227 228 225 218 225 234 237 238 240 246 248 246 241 233 223 220 224 234
27 31 22 11 2 360 351 329 304 279 273 273 272 275 265 258 255 255 245 234 234 240 243 243 239 229 225 225 221 227 230 229 236 237 241 245 244 241 237 230 226 227 233
28 21 10 5 3 1 356 336 323 306 291 288 285 286 286 276 264 256 256 249 238 238 247 244 240 233 226 228 228 224 221 221 221 229 237 242 242 245 242 237 234 234 240
28 12 2 0 354 351 346 332 320 311 304 299 296 292 290 286 281 276 271 268 254 244 247 247 242 238 231 232 230 225 219 216 217 228 237 244 245 240 238 234 238 233 242
18 4 355 351 344 338 333 319 311 295 291 295 295 292 295 293 285 281 279 278 269 258 252 247 237 229 228 227 227 226 219 214 219 228 234 239 240 240 240 231 230 229 233
357 344 337 331 328 326 322 319 300 288 293 290 280 278 283 276 281 284 282 276 269 261 244 242 238 230 227 226 224 224 220 218 220 222 226 231 235 236 238 229 222 225 233
320 313 311 315 316 316 316 315 316 314 304 296 294 293 288 287 287 286 283 281 273 250 235 239 237 233 229 226 224 222 223 222 218 218 221 226 229 232 233 232 226 226 233
309 307 308 300 302 304 305 305 304 308 313 313 309 302 300 297 295 292 289 288 274 239 237 241 240 237 233 229 227 226 227 225 218 218 221 224 225 227 230 232 230 229 232
306 304 302 299 301 302 304 304 303 303 303 305 308 307 306 304 298 293 289 273 270 263 252 248 246 242 237 233 230 227 225 225 223 218 220 223 224 225 230 233 233 231 230
307 313 318 310 310 311 310 308 307 306 306 306 306 308 313 313 309 306 294 277 270 268 260 253 249 244 240 236 230 225 224 225 225 223 223 224 225 225 230 234 233 232 228
315 317 323 321 313 311 310 308 307 307 307 306 304 304 306 307 304 302 298 289 281 276 270 262 255 248 242 235 230 227 226 227 224 223 224 226 226 226 228 232 234 234 233
323 318 319 317 316 314 312 310 309 307 307 306 307 309 309 307 308 306 303 298 293 288 282 269 260 254 250 245 238 233 230 229 227 226 227 228 227 229 230 231 231 230 230
330 327 325 323 320 317 316 315 314 311 309 308 308 311 316 317 316 315 314 314 312 307 304 293 282 275 269 264 253 241 237 236 232 228 227 230 231 231 231 232 234 233 230
339 334 330 328 327 324 321 318 315 313 311 310 309 311 314 315 315 317 319 319 319 320 320 314 305 301 297 289 273 257 249 249 246 240 236 236 237 239 238 238 237 236 237
344 339 336 332 327 324 321 318 317 315 314 313 312 313 313 313 314 316 316 318 320 322 326 325 317 315 317 313 305 295 283 264 255 255 247 241 242 242 242 242 240 240 239
346 341 336 330 326 322 319 317 317 317 316 315 313 313 314 315 315 315 316 318 322 323 324 321 319 319 316 311 313 315 305 283 263 253 250 245 243 242 242 243 244 243 244